Regional Weather Roundup
Issued by NWS San Diego, CA

Home | Current Version | Previous Version | Text Only | Print | Product List | Glossary On
Versions: 1 2 3 4 5 6 7 8 9 10 11 12 13 14 15 16 17 18 19 20 21 22 23 24 25 26 27 28 29 30 31 32 33 34 35 36 37 38 39 40 41 42 43 44 45 46 47 48 49 50
000
ASUS46 KSGX 292311
RWRSGX

SAN DIEGO HOURLY WEATHER ROUNDUP
NATIONAL WEATHER SERVICE SAN DIEGO CA
400 PM PDT SUN MAY 29 2016

NOTE: "FAIR" INDICATES FEW OR NO CLOUDS BELOW 12,000 FEET WITH NO
SIGNIFICANT WEATHER AND/OR OBSTRUCTIONS TO VISIBILITY.

CAZ042-043-060-061-PZZ750-775-300000-

GREATER SAN DIEGO AREA

CITY           SKY/WX    TMP DP  RH WIND       PRES   REMARKS
LINDBERGH FLD  CLOUDY    67  54  63 W8        30.00F
POINT LOMA       N/A     65  53  66 W13         N/A
NATIONAL CITY    N/A     66  58  75 SW6       30.00F
CHULA VISTA      N/A     66  58  77 W2        29.91F
IMPERIAL BEACH CLOUDY    68  55  63 W10       29.99F
BROWN FIELD    CLOUDY    63  55  75 W8        29.99F
MIRAMAR MCAS   CLOUDY    68  54  60 W7        29.98F
MONTGOMERY FLD CLOUDY    66  54  65 NW8       29.98F

$$

NORTH SAN DIEGO COUNTY

CITY           SKY/WX    TMP DP  RH WIND       PRES   REMARKS
CAMP PENDLETON CLOUDY    68  56  65 SW9       29.97F
OCEANSIDE AP   CLOUDY    68  54  60 SW12G17   29.97F
OCEANSIDE HBR    N/A     65  59  81 W10       30.00F
VISTA            N/A     66  57  74 W7        29.96F
CARLSBAD       CLOUDY    65  55  70 VRB6      29.97F
DEL MAR          N/A     68  59  73 W1        30.01F
LA JOLLA SCRIP   N/A     64  58  81 SW2       29.98F
FALLBROOK        N/A     71  60  67 S8        29.95F
ESCONDIDO        N/A     67  57  69 SW6       29.99F
SAN MARCOS       N/A     66  54  66 W7        29.96F
POWAY            N/A     65  58  79 CALM      29.99F

$$

EAST SAN DIEGO COUNTY

CITY           SKY/WX    TMP DP  RH WIND       PRES   REMARKS
RAMONA         CLOUDY    64  55  72 MISG      29.98F
SANTEE LAKES     N/A     66  58  75 W3        29.97F
LA MESA          N/A     63  56  78 W3        29.92F
DESCANSO N       N/A     57  55  92 CALM      29.85F
MT. LAGUNA OBS   N/A     64  36  35 E2        29.66F
CAMPO            N/A     68  54  60 SW16      29.93F

$$

ORANGE COUNTY AND THE LOS ANGELES BASIN

CITY           SKY/WX    TMP DP  RH WIND       PRES   REMARKS
JOHN WAYNE AP  MOSUNNY   69  54  58 SW12      29.97F
LAKE FOREST FR   N/A     71  54  55 SW3       29.86F
HUNTINGTON BCH   N/A     68  59  72 SW12      29.99F
LOS ALAMITOS   FAIR      72  54  52 SW13      29.96F
FULLERTON      MOSUNNY   73  52  47 SW7       29.95F
LONG BEACH     PTSUNNY   70  53  54 SW8       29.96F
L.A. AP        MOSUNNY   66  54  65 W16       29.98F
L.A. DOWNTOWN  SUNNY     69  54  58 VRB3      29.96F

$$

THE INLAND EMPIRE

CITY           SKY/WX    TMP DP  RH WIND       PRES   REMARKS
CORONA         SUNNY     74  54  49 W9G17     29.95F
CHINO          MOSUNNY   78  52  40 SW13      29.95F
ONTARIO        MOSUNNY   73  52  47 W8        29.95F
SAN BERNARDINO MOSUNNY   75  50  41 W7        29.95F
RIVERSIDE AP   SUNNY     74  52  46 VRB5      29.95F
MORENO VALLEY    N/A     75  58  55 NW2       28.06F
MARCH ARB      SUNNY     71  54  54 W8        29.96F
HORSETHIEF CYN   N/A     73  51  44 NE8       29.97F
PERRIS           N/A     74  56  54 W3        29.94F
HEMET EAST       N/A     74  51  44 W6        29.82F
FRENCH VALLEY  FAIR      72  54  53 S13G20    29.96S
TEMECULA         N/A     73  58  60 S10       29.89F

$$

SAN BERNARDINO AND RIVERSIDE COUNTY MOUNTAINS

CITY           SKY/WX    TMP DP  RH WIND       PRES   REMARKS
BIG BEAR AP    SUNNY     63  14  15 NE9       30.12F
PINE COVE        N/A     62  47  58 W3        29.87F

$$

SOUTHERN DESERT INCLUDING THE COACHELLA VALLEY

CITY           SKY/WX    TMP DP  RH WIND       PRES   REMARKS
PALM SPRINGS   SUNNY     91  38  15 NE9       29.83F
THOUSAND PALMS   N/A     92  36  14 E3        29.80F
PALM DESERT      N/A     92  38  15 CALM      30.21S
THERMAL        SUNNY     92  34  13 SE10G20   29.79F
BLYTHE         SUNNY     92  29  10 SW9       29.80F
IMPERIAL AP    SUNNY     92  50  23 VRB6      29.79F
EL CENTRO NAS  SUNNY     90  45  21 SE7       29.80F
YUMA AZ        SUNNY     92  30  11 S13       29.81
MEXICALI       SUNNY     90  36  14 SE6       29.81F

$$

UPPER DESERT

CITY           SKY/WX    TMP DP  RH WIND       PRES   REMARKS
VICTORVILLE AP MOSUNNY   88  25  10 NE10G24   29.91F
HESPERIA         N/A     83  38  20 W12       29.93F
PALMDALE       MOSUNNY   84  43  23 SW20      29.91F
LANCASTER      SUNNY     86  45  23 SW22      29.90F
EDWARDS AFB    MOSUNNY   88  21   8 NE5       29.87F
DAGGETT        SUNNY     90  20   7 MISG      29.86F
29 PALMS N     MOSUNNY   86  20   9 VRB5      29.94F
NEEDLES        SUNNY     95  24   8 W8        29.81F

$$

REGIONAL REPORTS

CITY           SKY/WX    TMP DP  RH WIND       PRES   REMARKS
SANTA BARBARA  CLOUDY    63  54  72 W9        29.99F
SANDBERG       LGT RAIN  76  39  26 NW22G29   30.06F
LAS VEGAS NV   MOSUNNY   92  24   8 SE9       29.81F
PHOENIX AZ     SUNNY     97  17   5 S10       29.80F
TIJUANA        CLOUDY    64  52  63 W10       30.01F
ENSENADA NW      N/A     63  32  31 W9        29.96F

$$

OFFSHORE ISLANDS

CITY           SKY/WX    TMP DP  RH WIND       PRES   REMARKS
CATALINA ARPT  SUNNY     59  52  77 W12       30.00F
SAN NICOLAS IS MOSUNNY  N/A N/A N/A NW8       30.00F

$$

MARINE AND OFFSHORE BUOY REPORTS

STATION/POSITION SKY/WX   TEMP    WIND        PRES    SWELL
                          AIR SEA DIR/SP/G            HT/PER/DIR
                          (F)     (DEG/KT/KT) (MB)    (FT/S/D)
TANNER BANKS               60 63  250/  6/  8 1016.1F   5/320/10
S CLEMENTE BASIN           60 63  270/  8/ 10 1015.5F   3/180/15
SAN NICOLAS IS.               63                N/A     3/170/14
SO. S. ROSA ISLA           58 60  270/  6/  8 1016.2F   5/310/ 9
W. S. BARBARA CH           58 60  290/  8/ 10 1015.8F   5/310/ 9
M. S. BARBARA CH           59 59  280/  8/ 10 1016.5F
S. MONICA BASIN            60 65  270/  8/ 10 1015.7F   3/190/15
S PEDRO CHANNEL               63                N/A     2/170/14
OCEANSIDE OFFSHR              65                N/A     2/190/14
TORREY PINES OTR              65                N/A     3/190/14
LA JOLLA 1                    66                N/A
SAN DIEGO BAY                 68                N/A
POINT LOMA SOUTH              66                N/A     3/180/14

$$




USA.gov is the U.S. government's official web portal to all federal, state and local government web resources and services.